FENGYUN 1C DEB, 35236

Orbit data source: Space-Track

FENGYUN 1C DEB, 35236 is space debris in SSO originally from a launch on Mon, 10 May 1999 UTC launched from the Taiyaun Space Center, China (TSC). Fengyun 1C debris stems from the Chinese weather satellite Fengyun-1C, which was intentionally destroyed by a Chinese anti-satellite missile in 2007. This event dramatically increased the amount of space debris, with thousands of trackable fragments posing hazards to satellites and human spaceflight. The Fengyun 1C debris cloud has become a focal point in discussions about space sustainability and the need for international regulations to prevent the creation of new debris.

Loading next visibility...
Identifier
35236, 1999-025DQU
Orbit
SSO
Country
Flag of CNCN / PRC
Related business
Manufacturer
Unknown
Mission
Spacecraft
Bus & Motor
Unknown
Mass
Unknown
Launch date (UTC)
1999-05-10 (27 years ago)
Launch vehicle
Unknown
Launch site
Taiyaun Space Center, China (TSC)
Object type
Payload
Rocket body
Debris
Shape & HBR
Unknown shape, 1.1 m
Radar Cross Section
Medium (>0.1 m² and <1 m²)

Expand to show TLE details & history
Last TLE update: 3 weeks ago

TLE from 3 weeks ago
0 FENGYUN 1C DEB
1 35236U 99025DQU 26235.08498288  .00001089  00000-0  30337-3 0  9996
2 35236  98.8218 177.2763 0084462 150.9928 209.5995 14.46447015 12220
Epoch: 2026-08-23T02:02Z
TLE epoch observation values (Epoch: 2026-08-23T02:02:22.520Z)
Latitude
-0.00001°
Longitude
175.29636°
Altitude
792.613 km
Speed
7.43 km/s
True Right ascension
11h 49m 06s
True Declination
0° 00' 00"
Sunlit
Object was in daylight at epoch
Visualization orbit readout
Latitude
Unknown
Longitude
Unknown
Altitude
Unknown
Speed
Unknown
Apparent Right ascension
Unknown
Apparent Declination
Unknown
Sunlit
N/A
Visualization observer readout
Local Sidereal Time
09:13:27
Azimuth
Unknown
Elevation
Unknown
Doppler factor
Unknown
Orbital elements
Apogee altitude
794.479 km
Perigee altitude
674.331 km
Semi-major axis
7,112.542 km
Eccentricity
0.00845
Inclination
98.8218°
RAAN
177.2763°
Arg. of periapsis
150.9928°
True anomaly
209.12579°
Mean anomaly
209.5995°
Eccentric anomaly
209.36221°
Mean motion
3.61831 °/min
Orbital period
99.49 mins
BSTAR
0.00030337
Loading maneuver chart data...
Computing Atmospheric mass density...

Documentation

Showing up to 5 results
|